When you browse on this site, cookies collect data to enhance your experience and personalize the content and advertising you see.
Visit our Privacy Policy to learn more. By continuing to use the site, you agree to this use of cookies and data.
  • In Spain
  • List of Countries
  • For 7 days
  • Water Temperature
  • Weather Map
  • Weather Widgets
  • user-avatar
    Login

    Hourly Weather Melipilla

    Today, 22 January, Wednesday

    Time Temperature Precipitation Wind Pressure Humidity
    00:00 +13°C° 0 mm 0 mps 743 mmHg 86%
    01:00 +13°C° 0 mm 0 mps 743 mmHg 85%
    02:00 +12°C° 0 mm 0 mps 743 mmHg 86%
    03:00 +12°C° 0 mm 0 mps 743 mmHg 87%
    04:00 +12°C° 0 mm 0 mps 743 mmHg 87%
    05:00 +14°C° 0 mm 0 mps 744 mmHg 81%
    06:00 +18°C° 0 mm 1 mps 744 mmHg 74%
    07:00 +20°C° 0 mm 1 mps 744 mmHg 67%
    08:00 +23°C° 0 mm 1 mps 744 mmHg 57%
    09:00 +26°C° 0 mm 2 mps 744 mmHg 47%
    10:00 +29°C° 0 mm 3 mps 745 mmHg 37%
    11:00 +30°C° 0 mm 4 mps 744 mmHg 36%
    12:00 +32°C° 0 mm 4 mps 744 mmHg 34%
    13:00 +33°C° 0 mm 5 mps 744 mmHg 32%
    14:00 +32°C° 0 mm 5 mps 744 mmHg 34%
    15:00 +30°C° 0 mm 4 mps 744 mmHg 37%
    16:00 +30°C° 0 mm 4 mps 744 mmHg 39%
    17:00 +26°C° 0 mm 3 mps 744 mmHg 51%
    18:00 +22°C° 0 mm 3 mps 744 mmHg 63%
    19:00 +18°C° 0 mm 2 mps 744 mmHg 75%
    20:00 +18°C° 0 mm 1 mps 744 mmHg 80%
    21:00 +16°C° 0 mm 1 mps 744 mmHg 86%
    22:00 +14°C° 0 mm 0 mps 744 mmHg 91%
    23:00 +13°C° 0 mm 0 mps 744 mmHg 92%

    Tomorrow, 23 January, Thursday

    Time Temperature Precipitation Wind Pressure Humidity
    00:00 +13°C° 0 mm 0 mps 744 mmHg 92%
    01:00 +13°C° 0 mm 0 mps 744 mmHg 93%
    02:00 +13°C° 0 mm 0 mps 745 mmHg 92%
    03:00 +13°C° 0 mm 0 mps 745 mmHg 92%
    04:00 +13°C° 0 mm 0 mps 745 mmHg 92%
    05:00 +15°C° 0 mm 0 mps 746 mmHg 85%
    06:00 +16°C° 0 mm 0 mps 746 mmHg 78%
    07:00 +18°C° 0 mm 0 mps 746 mmHg 71%
    08:00 +23°C° 0 mm 1 mps 746 mmHg 60%
    09:00 +26°C° 0 mm 2 mps 747 mmHg 48%
    10:00 +30°C° 0 mm 3 mps 747 mmHg 36%
    11:00 +30°C° 0 mm 3 mps 747 mmHg 35%
    12:00 +32°C° 0 mm 4 mps 747 mmHg 35%
    13:00 +32°C° 0 mm 5 mps 746 mmHg 34%
    14:00 +30°C° 0 mm 5 mps 746 mmHg 37%
    15:00 +29°C° 0 mm 5 mps 746 mmHg 40%
    16:00 +28°C° 0 mm 4 mps 746 mmHg 42%
    17:00 +25°C° 0 mm 3 mps 746 mmHg 52%
    18:00 +21°C° 0 mm 2 mps 746 mmHg 62%
    19:00 +18°C° 0 mm 2 mps 746 mmHg 72%
    20:00 +18°C° 0 mm 1 mps 746 mmHg 78%
    21:00 +16°C° 0 mm 1 mps 746 mmHg 84%
    22:00 +13°C° 0 mm 0 mps 746 mmHg 90%
    23:00 +13°C° 0 mm 0 mps 746 mmHg 90%

    Day after tomorrow, 24 January, Friday

    Time Temperature Precipitation Wind Pressure Humidity
    00:00 +13°C° 0 mm 0 mps 745 mmHg 90%
    01:00 +13°C° 0 mm 0 mps 745 mmHg 90%
    02:00 +13°C° 0 mm 0 mps 745 mmHg 89%
    03:00 +13°C° 0 mm 0 mps 745 mmHg 88%
    04:00 +13°C° 0 mm 0 mps 745 mmHg 87%
    05:00 +15°C° 0 mm 0 mps 746 mmHg 79%
    06:00 +17°C° 0 mm 0 mps 746 mmHg 70%
    07:00 +19°C° 0 mm 0 mps 746 mmHg 62%
    08:00 +24°C° 0 mm 1 mps 747 mmHg 52%
    09:00 +27°C° 0 mm 2 mps 747 mmHg 43%
    10:00 +30°C° 0 mm 3 mps 747 mmHg 34%
    11:00 +32°C° 0 mm 4 mps 747 mmHg 32%
    12:00 +33°C° 0 mm 4 mps 746 mmHg 31%
    13:00 +34°C° 0 mm 5 mps 746 mmHg 29%
    14:00 +33°C° 0 mm 5 mps 746 mmHg 32%
    15:00 +32°C° 0 mm 5 mps 746 mmHg 35%
    16:00 +29°C° 0 mm 5 mps 745 mmHg 38%
    17:00 +26°C° 0 mm 4 mps 746 mmHg 50%
    18:00 +22°C° 0 mm 3 mps 746 mmHg 62%
    19:00 +18°C° 0 mm 2 mps 746 mmHg 74%
    20:00 +18°C° 0 mm 1 mps 746 mmHg 77%
    21:00 +16°C° 0 mm 1 mps 746 mmHg 81%
    22:00 +14°C° 0 mm 0 mps 746 mmHg 84%
    23:00 +14°C° 0 mm 0 mps 745 mmHg 84%

    25 January, Saturday

    Time Temperature Precipitation Wind Pressure Humidity
    00:00 +13°C° 0 mm 0 mps 745 mmHg 84%
    01:00 +13°C° 0 mm 0 mps 745 mmHg 84%
    02:00 +13°C° 0 mm 0 mps 745 mmHg 83%
    03:00 +13°C° 0 mm 0 mps 745 mmHg 83%
    04:00 +13°C° 0 mm 0 mps 745 mmHg 83%
    05:00 +15°C° 0 mm 0 mps 745 mmHg 74%
    06:00 +17°C° 0 mm 0 mps 746 mmHg 65%
    07:00 +22°C° 0 mm 1 mps 746 mmHg 57%
    08:00 +25°C° 0 mm 1 mps 746 mmHg 48%
    09:00 +28°C° 0 mm 2 mps 746 mmHg 39%
    10:00 +31°C° 0 mm 3 mps 746 mmHg 29%
    11:00 +33°C° 0 mm 4 mps 746 mmHg 26%
    12:00 +34°C° 0 mm 4 mps 746 mmHg 23%
    13:00 +36°C° 0 mm 5 mps 746 mmHg 20%
    14:00 +34°C° 0 mm 5 mps 746 mmHg 22%
    15:00 +33°C° 0 mm 5 mps 746 mmHg 23%
    16:00 +32°C° 0 mm 5 mps 746 mmHg 25%
    17:00 +27°C° 0 mm 4 mps 746 mmHg 32%
    18:00 +24°C° 0 mm 3 mps 746 mmHg 40%
    19:00 +19°C° 0 mm 2 mps 746 mmHg 48%
    20:00 +18°C° 0 mm 1 mps 746 mmHg 54%
    21:00 +16°C° 0 mm 1 mps 746 mmHg 60%
    22:00 +13°C° 0 mm 0 mps 746 mmHg 67%
    23:00 +13°C° 0 mm 0 mps 746 mmHg 67%

    26 January, Sunday

    Time Temperature Precipitation Wind Pressure Humidity
    00:00 +13°C° 0 mm 0 mps 746 mmHg 67%
    01:00 +13°C° 0 mm 0 mps 745 mmHg 67%
    02:00 +12°C° 0 mm 0 mps 745 mmHg 66%
    03:00 +12°C° 0 mm 0 mps 745 mmHg 64%
    04:00 +12°C° 0 mm 0 mps 745 mmHg 63%
    05:00 +15°C° 0 mm 0 mps 746 mmHg 54%
    06:00 +18°C° 0 mm 0 mps 746 mmHg 45%
    07:00 +22°C° 0 mm 1 mps 746 mmHg 36%
    08:00 +25°C° 0 mm 1 mps 746 mmHg 32%
    09:00 +28°C° 0 mm 2 mps 747 mmHg 27%
    10:00 +31°C° 0 mm 3 mps 747 mmHg 22%
    11:00 +33°C° 0 mm 4 mps 747 mmHg 23%
    12:00 +33°C° 0 mm 5 mps 747 mmHg 23%
    13:00 +34°C° 0 mm 5 mps 746 mmHg 24%
    14:00 +33°C° 0 mm 5 mps 746 mmHg 27%
    15:00 +32°C° 0 mm 5 mps 746 mmHg 30%
    16:00 +30°C° 0 mm 5 mps 746 mmHg 34%
    17:00 +27°C° 0 mm 4 mps 746 mmHg 47%
    18:00 +22°C° 0 mm 3 mps 746 mmHg 60%
    19:00 +19°C° 0 mm 2 mps 746 mmHg 74%
    20:00 +19°C° 0 mm 1 mps 746 mmHg 78%
    21:00 +18°C° 0 mm 1 mps 746 mmHg 82%
    22:00 +15°C° 0 mm 0 mps 746 mmHg 86%
    23:00 +15°C° 0 mm 0 mps 746 mmHg 85%

    27 January, Monday

    Time Temperature Precipitation Wind Pressure Humidity
    00:00 +14°C° 0 mm 0 mps 745 mmHg 85%
    01:00 +14°C° 0 mm 0 mps 745 mmHg 84%
    02:00 +14°C° 0 mm 0 mps 745 mmHg 82%
    03:00 +14°C° 0 mm 0 mps 745 mmHg 81%
    04:00 +15°C° 0 mm 0 mps 745 mmHg 79%
    05:00 +17°C° 0 mm 0 mps 745 mmHg 70%
    06:00 +19°C° 0 mm 0 mps 745 mmHg 60%
    07:00 +22°C° 0 mm 0 mps 745 mmHg 51%
    08:00 +27°C° 0 mm 1 mps 746 mmHg 44%
    09:00 +29°C° 0 mm 2 mps 746 mmHg 38%
    10:00 +33°C° 0 mm 4 mps 746 mmHg 31%
    11:00 +33°C° 0 mm 4 mps 746 mmHg 32%
    12:00 +33°C° 0 mm 5 mps 746 mmHg 32%
    13:00 +33°C° 0 mm 6 mps 745 mmHg 33%
    14:00 +32°C° 0 mm 5 mps 745 mmHg 36%
    15:00 +30°C° 0 mm 5 mps 745 mmHg 38%
    16:00 +29°C° 0 mm 5 mps 745 mmHg 41%
    17:00 +25°C° 0 mm 4 mps 745 mmHg 52%
    18:00 +21°C° 0 mm 3 mps 745 mmHg 64%
    19:00 +18°C° 0 mm 2 mps 745 mmHg 75%
    20:00 +18°C° 0 mm 1 mps 745 mmHg 79%
    21:00 +15°C° 0 mm 1 mps 745 mmHg 84%
    22:00 +13°C° 0 mm 0 mps 745 mmHg 88%
    23:00 +13°C° 0 mm 0 mps 745 mmHg 88%
    Show more